Home > Weather > Jaipur > Past weeks

Flag for India Weather for the Past 2 Weeks in Jaipur, Rajasthan, India

Now
99 °F

Haze.


Feels Like: 93 °F
Forecast: 83 / 106 °F
Wind: No wind

Location: Jaipur / Sanganer

Current Time: May 1, 2016 at 9:13:50 PM

Latest Report: May 1, 2016 at 8:00 PM


Visibility: 2 mi

Pressure: 29.68 "Hg

Humidity: 8%

Dew Point: 28 °F

Location of JaipurLocation

Historic Weather in Jaipur — Graph

°F

Jaipur Temperature Yesterday

Maximum temperature yesterday: 106 °F (at 1:30 PM)
Minimum temperature yesterday: 84 °F (at 5:00 AM)
Average temperature yesterday: 97 °F

High & Low Weather Summary for the Past Weeks

 TemperatureHumidityPressure
High108 °F (May 1, 1:00 PM)32% (Apr 21, 6:30 AM)29.92 "Hg (Apr 21, 6:30 AM)
Low75 °F (Apr 24, 6:30 AM)2% (Apr 24, 11:00 AM)29.59 "Hg (Apr 22, 5:00 PM)
Average93 °F14%29.76 "Hg
* Reported Apr 16 7:30 PM — May 1 8:00 PM, Jaipur, Weather by CustomWeather, © 2016

Note: Actual official high and low records may vary slightly from our data, if they occured in-between our weather recording intervals... More about our weather records

Advertising

Jaipur Weather History for the Previous 24 Hours

Scroll right to see more
 ConditionsComfort  
Time TempWeatherWind HumidityBarometerVisibility
8:00 PM
Sun, May 1
99 °FHaze.No wind8%29.68 "Hg2 mi
7:30 PM100 °FHaze.1 mph6%29.65 "Hg2 mi
7:00 PM102 °FHaze.6 mph5%29.65 "Hg3 mi
6:00 PM106 °FHaze.10 mph4%29.65 "Hg3 mi
5:30 PM108 °FHaze.8 mph4%29.65 "Hg3 mi
5:00 PM108 °FHaze.10 mph4%29.65 "Hg3 mi
4:30 PM108 °FHaze.9 mph4%29.65 "Hg3 mi
4:00 PM108 °FHaze.12 mph3%29.65 "Hg2 mi
3:30 PM106 °FHaze.9 mph4%29.65 "Hg2 mi
3:00 PM108 °FHaze.9 mph4%29.68 "Hg2 mi
2:30 PM108 °FHaze.12 mph5%29.68 "Hg2 mi
2:00 PM106 °FHaze.12 mph5%29.68 "Hg2 mi
1:30 PM108 °FHaze.10 mph5%29.71 "Hg2 mi
1:00 PM108 °FHaze.12 mph7%29.74 "Hg2 mi
12:30 PM104 °FHaze.8 mph9%29.74 "Hg2 mi
12:00 PM104 °FHaze.10 mph9%29.74 "Hg2 mi
11:30 AM102 °FHaze.8 mph11%29.77 "Hg2 mi
11:00 AM100 °FHaze.9 mph12%29.77 "Hg2 mi
10:00 AM97 °FHaze.13 mph13%29.80 "Hg2 mi
9:30 AM97 °FHaze.10 mph13%29.80 "Hg2 mi
9:00 AM95 °FHaze.10 mph13%29.80 "Hg2 mi
8:00 AM91 °FHaze.5 mph14%29.77 "Hg2 mi
7:30 AM90 °FHaze.3 mph14%29.77 "Hg2 mi
7:00 AM86 °FHaze.3 mph14%29.77 "Hg2 mi
6:30 AM84 °FHaze.5 mph15%29.74 "Hg2 mi
6:00 AM82 °FHaze.1 mph15%29.74 "Hg2 mi
5:30 AM84 °FHaze.3 mph14%29.74 "Hg2 mi
5:00 AM84 °FHaze.7 mph14%29.74 "Hg2 mi
4:00 AM81 °FHaze.No wind24%29.71 "Hg2 mi
3:00 AM84 °FHaze.No wind20%29.71 "Hg2 mi
2:00 AM86 °FHaze.No wind18%29.74 "Hg2 mi
1:00 AM86 °FHaze.No wind13%29.74 "Hg2 mi
12:00 AM90 °FHaze.No wind12%29.74 "Hg2 mi
11:00 PM
Sat, Apr 30
95 °FHaze.3 mph7%29.74 "Hg2 mi
10:00 PM93 °FHaze.3 mph11%29.74 "Hg2 mi
9:00 PM97 °FHaze.3 mph9%29.74 "Hg2 mi
Weather by CustomWeather, © 2016

See weather overviewHow to use our weather pages